Temperature
21 19 16 16 16 15 15 15 15 15 14 14 14 13 13 13 13 13 13 13 13 13 13 13 13 13 13 14 14 13 13 13 13 13 13 13 14 14 13 12 13 13 12
21 19 16 16 16 15 15 15 15 14 14 14 13 12 12 12 12 13 13 13 13 13 13 13 13 13 13 13 13 13 13 13 13 13 12 13 13 14 13 13 12 12 12
22 19 16 16 16 16 16 15 15 14 14 14 13 12 12 12 12 12 13 12 12 12 13 13 13 13 13 13 13 13 13 13 14 13 13 13 13 13 13 12 12 11 12
21 20 17 16 16 16 16 15 15 14 14 13 13 12 12 12 13 12 12 12 12 13 13 13 13 13 14 13 13 13 14 14 14 14 13 13 13 13 13 12 11 11 12
21 20 18 17 17 16 16 15 15 14 14 13 13 12 12 13 13 13 13 12 12 13 13 13 14 14 14 14 14 14 14 14 14 14 14 14 14 13 13 12 11 11 11
21 20 20 19 17 16 16 15 15 14 14 14 13 13 13 13 13 13 13 13 13 13 13 14 14 14 14 14 14 14 14 14 14 14 14 14 14 13 13 13 12 11 11
20 19 19 19 18 17 16 15 15 15 15 14 14 13 13 13 13 14 13 13 13 13 13 13 14 14 14 14 14 14 14 14 14 14 14 13 13 13 13 13 13 12 11
19 19 19 18 18 17 16 15 15 15 15 14 13 13 13 13 13 14 14 13 13 13 13 13 13 14 14 14 13 13 13 13 13 13 13 13 13 13 13 13 13 13 13
19 19 19 18 18 17 15 15 15 14 14 14 13 13 13 13 13 13 14 13 13 13 14 13 13 13 13 13 13 12 12 12 12 12 12 12 12 12 12 12 12 12 12
18 18 18 18 18 17 16 15 14 15 14 14 14 14 14 14 13 13 13 14 14 14 13 13 13 13 13 13 13 12 12 12 12 12 12 12 11 11 12 12 13 13 13
18 18 18 18 17 17 17 15 15 14 14 14 14 14 14 14 14 14 14 14 14 13 13 13 13 13 13 13 13 12 12 12 12 12 12 12 12 12 12 12 12 13 13
19 19 18 18 17 17 16 16 15 14 14 14 14 14 15 14 14 14 14 14 13 13 12 13 13 13 12 12 12 12 12 12 12 12 12 12 12 12 12 12 12 12 12
20 19 19 18 17 17 16 16 15 14 14 14 14 14 14 14 14 13 13 13 12 12 12 12 12 12 12 12 12 12 12 12 12 12 12 12 12 12 12 12 12 12 12
20 19 18 18 17 17 16 16 15 14 14 13 13 13 13 13 13 13 13 12 12 12 12 12 12 12 12 12 12 12 12 12 12 12 12 12 11 11 11 11 10 11 11
20 20 19 18 17 17 16 15 15 14 14 13 13 13 13 12 12 12 12 11 11 11 12 11 11 12 12 12 12 12 12 12 11 11 11 11 10 10 10 10 10 10 11
20 20 20 19 18 17 16 15 14 14 13 13 13 13 12 12 12 12 12 12 12 12 12 12 12 12 12 12 12 11 11 10 10 10 10 9 9 10 10 10 10 11 10
20 20 21 20 19 17 16 15 14 13 13 13 13 12 12 12 12 11 11 11 11 12 12 12 12 12 12 11 11 10 10 10 10 9 9 9 9 9 10 10 10 10 10
20 21 21 21 19 17 15 14 14 14 13 13 13 13 12 12 11 11 11 11 12 12 12 12 12 11 11 10 10 10 10 10 9 9 9 9 9 9 9 9 10 10 10
20 20 21 20 19 17 15 15 14 14 13 13 13 12 12 11 11 11 11 12 11 11 11 11 10 9 9 9 9 10 10 10 9 9 9 9 9 9 9 9 9 9 9
20 20 20 20 18 17 15 14 14 13 13 13 12 12 11 11 11 11 11 11 11 10 10 10 9 8 7 8 9 9 10 9 9 8 8 8 8 9 9 8 8 8 8
20 20 20 20 18 17 16 14 13 13 13 12 12 12 11 11 12 11 11 11 10 10 10 9 8 8 7 7 8 8 9 9 8 8 8 8 9 9 8 8 8 8 8
18 19 19 19 17 17 16 14 13 13 12 12 11 11 11 12 11 11 10 10 9 9 9 8 7 6 6 6 5 6 6 7 8 8 9 9 8 7 7 7 7 7 7
17 17 18 18 16 16 14 14 13 12 12 11 11 11 11 11 11 10 10 9 9 8 8 7 6 5 5 5 4 3 3 2 2 5 6 6 5 5 5 5 6 6 6
17 16 16 16 15 14 14 14 13 12 12 11 11 11 11 11 10 10 9 9 8 7 6 5 5 4 4 4 3 3 2 1 1 1 3 4 4 4 4 5 4 4 5
16 16 15 15 14 14 14 13 12 12 12 11 11 11 11 10 10 9 9 8 7 6 6 5 4 4 3 3 3 3 2 2 1 -1 -1 2 3 3 3 3 3 3 3
15 15 14 14 13 13 13 13 12 11 11 11 11 11 11 10 9 9 8 7 7 6 5 4 4 4 3 3 2 2 1 1 -0 -1 -3 -2 -2 0 1 2 2 1 0
Wind_Speed
5 9 18 20 19 17 15 13 10 9 8 6 6 9 9 9 9 7 6 5 5 5 6 7 7 9 9 7 6 4 5 4 5 4 5 5 4 4 5 5 6 7 4
9 12 16 19 20 18 16 13 10 9 9 7 7 9 8 6 6 6 7 6 5 6 7 7 6 6 7 8 7 5 3 3 4 4 4 4 4 4 4 7 4 1 4
9 12 13 17 19 17 15 13 11 10 9 8 7 7 6 5 6 7 8 7 4 4 6 6 5 6 6 6 6 6 5 5 5 4 4 4 4 5 6 8 1 1 6
9 11 12 18 19 17 16 14 12 10 9 8 8 8 7 6 6 7 8 6 3 2 4 4 4 6 6 5 6 6 6 6 5 4 5 5 6 8 8 6 5 5 6
7 10 12 17 17 17 16 14 12 10 9 9 7 5 6 6 8 9 8 7 5 3 3 3 3 4 5 6 6 6 6 5 4 3 4 5 7 9 10 8 7 6 7
7 9 12 15 14 15 17 14 12 10 9 8 7 5 5 5 8 9 6 8 7 4 2 1 2 4 5 7 8 8 7 4 2 2 5 7 8 10 11 10 11 10 10
6 6 10 13 13 15 16 14 12 10 9 7 8 6 4 2 4 9 8 8 6 3 1 2 4 6 7 8 9 9 9 7 4 3 6 9 10 12 12 12 13 13 13
7 6 7 11 12 14 15 13 11 10 9 7 7 7 3 4 9 2 6 7 6 2 3 5 7 8 9 9 9 9 7 7 5 5 8 11 13 15 15 14 14 14 15
6 6 5 7 10 13 13 12 11 10 8 8 7 5 2 1 5 7 3 4 3 2 4 7 9 9 9 8 9 9 8 8 7 7 9 12 14 16 15 14 14 14 15
5 7 6 6 7 9 11 11 10 9 8 7 5 4 2 0 3 5 4 1 1 4 6 8 9 8 8 9 9 10 9 8 8 8 10 12 15 16 16 16 16 16 16
7 7 7 6 6 7 9 10 10 10 9 8 6 4 2 0 2 2 3 3 4 5 7 8 10 10 10 10 10 10 10 9 8 8 10 12 13 14 15 16 16 17 17
12 11 9 8 8 6 6 7 8 8 9 8 6 4 3 1 1 2 3 3 4 5 6 6 10 11 11 11 11 11 9 8 8 8 10 12 12 12 13 14 15 15 16
10 12 11 9 8 6 4 5 5 6 7 7 6 5 4 2 2 1 2 3 2 2 4 8 11 12 11 10 9 8 8 8 8 8 10 11 11 10 10 10 11 11 12
8 10 10 10 9 7 6 5 5 5 5 5 7 6 5 3 2 1 3 4 5 7 8 8 8 9 9 9 9 8 8 9 9 9 10 13 12 11 10 10 11 12 13
9 11 12 11 10 8 7 4 4 4 5 6 7 7 6 4 3 4 5 8 8 8 7 6 6 6 7 8 9 8 7 10 10 9 11 14 16 15 14 15 14 14 14
12 12 13 14 12 10 8 7 6 5 6 6 6 7 8 8 7 6 6 6 7 8 9 8 5 4 4 5 5 6 6 8 7 9 11 13 16 17 17 16 16 16 15
10 10 13 14 13 12 9 7 6 7 7 6 8 10 12 13 10 8 6 5 6 8 9 8 5 6 6 7 7 6 5 6 6 9 11 12 14 15 17 17 17 17 16
8 8 10 11 13 12 10 8 6 7 8 7 10 12 14 14 12 10 6 5 8 10 8 5 6 5 7 8 7 6 4 3 4 6 9 11 12 12 14 16 17 17 16
9 8 11 12 13 13 12 10 7 7 6 8 11 10 13 15 15 12 7 6 10 8 6 6 6 5 5 8 9 7 5 3 2 4 6 8 9 9 9 11 13 14 14
7 9 12 13 13 14 13 11 9 8 7 8 8 10 13 15 16 14 8 8 9 6 7 6 5 5 3 6 8 8 6 2 1 4 5 4 5 6 6 6 8 9 11
6 11 14 15 14 14 12 10 8 8 6 6 6 10 13 14 15 12 7 7 6 6 6 6 4 5 5 6 5 6 5 3 4 4 3 2 2 4 3 5 7 9 9
7 11 14 15 15 13 11 9 7 7 6 6 5 8 11 14 14 11 7 7 6 6 8 8 6 3 4 6 4 4 5 6 5 8 5 2 4 5 5 10 13 13 11
8 9 12 15 15 13 13 12 12 10 8 5 4 4 6 13 13 12 10 7 5 7 6 6 4 5 4 4 5 4 4 4 5 6 5 5 7 5 6 8 10 12 14
9 9 12 14 14 15 16 16 19 12 9 6 4 5 6 10 12 12 11 10 7 6 6 4 4 3 3 3 3 3 1 3 4 6 5 6 6 7 7 7 7 12 15
10 11 12 13 14 15 16 17 16 12 9 8 7 8 7 6 9 11 12 10 6 5 6 5 5 4 2 1 1 2 2 2 2 3 7 8 10 7 7 6 7 11 15
10 11 13 15 15 15 15 15 16 17 15 13 9 8 6 5 5 8 10 9 7 5 5 4 4 3 2 2 1 1 1 1 3 3 6 12 13 8 8 8 9 8 11
Wind_Direction
218 188 182 164 165 158 154 152 145 135 123 125 142 138 130 131 129 133 131 112 93 57 43 41 29 24 39 50 65 69 87 62 35 29 31 15 357 328 283 250 254 240 248
168 180 188 167 159 158 158 158 154 148 138 139 147 133 124 125 135 139 134 116 93 63 40 28 26 20 25 29 29 22 13 353 355 2 19 10 3 340 304 278 279 249 276
150 173 189 163 154 159 161 161 159 157 154 148 151 143 133 150 155 157 145 126 103 71 43 34 34 26 17 11 5 356 349 348 345 339 13 6 349 336 316 291 247 286 281
143 163 175 159 155 161 163 162 162 165 164 159 159 165 178 185 154 152 147 133 144 90 53 46 42 28 23 10 358 346 336 335 351 8 15 357 342 329 323 289 241 238 266
136 151 162 160 157 163 163 165 166 169 170 171 174 175 191 194 182 172 164 166 160 132 84 63 50 14 1 351 345 340 334 339 349 3 339 324 322 316 317 300 266 264 278
136 141 157 156 161 165 161 167 171 174 177 180 186 191 206 213 212 205 182 159 152 146 128 50 12 345 343 337 331 327 321 317 312 298 292 299 302 297 295 289 281 271 263
134 137 153 158 167 163 162 168 173 178 181 180 184 201 226 315 294 224 192 147 147 153 223 313 322 327 332 333 329 326 331 342 342 291 286 289 289 289 286 279 273 272 267
144 144 157 166 169 166 165 166 173 180 184 180 182 194 220 336 357 347 184 155 155 198 291 308 319 326 327 329 330 328 328 319 306 287 281 282 283 287 288 284 277 271 271
145 152 159 165 173 170 165 164 173 182 182 176 177 184 199 345 5 24 36 147 176 267 306 310 315 324 328 331 334 334 336 329 318 297 287 283 286 289 290 286 278 270 262
163 169 167 162 167 158 158 167 176 179 175 162 156 149 150 225 334 10 17 23 311 299 302 307 310 316 327 338 340 341 345 339 327 311 300 296 301 302 296 293 286 275 268
192 193 186 179 176 160 160 173 180 176 167 150 141 132 126 133 292 310 322 304 305 304 306 316 332 351 8 13 11 10 10 3 349 333 317 310 312 312 309 306 299 291 281
202 202 196 194 194 175 168 166 173 175 167 159 150 143 131 110 323 299 314 309 301 309 314 354 32 36 35 34 29 23 21 12 5 349 333 328 324 319 315 313 310 308 303
204 206 202 195 190 172 164 154 161 169 166 165 167 167 144 112 63 37 357 355 340 6 32 51 50 41 32 30 28 22 16 11 356 345 340 344 342 334 328 322 320 323 335
197 206 203 195 182 170 160 158 165 166 167 172 181 177 154 128 89 80 87 86 71 68 65 53 49 44 34 27 25 19 16 0 351 353 360 9 15 9 5 9 13 12 5
214 205 197 187 182 174 164 156 162 168 174 180 183 177 163 136 119 107 80 71 68 68 66 55 45 42 31 18 16 17 11 359 1 7 10 19 28 23 26 23 17 11 5
227 216 192 188 181 169 167 165 168 159 163 169 168 160 149 130 116 98 77 67 62 63 60 60 53 45 33 13 3 7 7 2 15 18 21 26 28 28 27 22 15 7 9
233 215 191 184 172 167 163 162 156 156 153 142 130 127 121 114 106 97 89 75 64 64 63 56 44 42 31 12 353 346 359 360 28 28 31 34 28 28 27 22 17 12 8
231 199 187 177 166 158 146 134 129 135 127 124 119 119 115 113 111 104 95 81 67 59 52 45 29 24 22 5 335 328 350 351 31 29 39 35 28 28 24 22 19 13 7
213 183 167 159 154 143 128 117 110 109 111 115 115 116 115 113 109 102 91 80 68 54 44 37 29 25 16 353 329 319 338 326 51 28 36 30 25 21 14 13 12 7 1
190 165 149 144 143 132 122 112 103 98 92 95 103 111 111 109 107 100 89 76 68 57 40 30 26 16 12 339 323 317 328 338 0 23 26 13 7 360 349 349 349 349 350
169 156 152 144 147 139 133 128 127 118 108 94 91 101 107 108 104 98 92 80 71 70 58 38 23 19 2 344 341 330 331 341 299 304 333 316 311 304 313 329 329 322 327
182 162 153 147 151 147 141 135 128 125 107 92 89 97 105 104 101 98 93 85 82 78 58 44 35 13 360 11 5 334 342 336 347 316 321 327 346 341 339 332 326 315 311
193 170 151 146 150 143 128 117 111 109 106 101 102 95 91 98 97 96 94 90 78 72 66 53 36 45 9 356 23 29 352 316 316 308 323 341 336 327 305 304 298 297 299
179 158 147 147 145 141 138 141 144 148 146 141 142 121 99 96 96 96 91 83 75 71 66 56 51 48 53 13 343 15 306 271 299 311 309 309 314 301 280 277 274 283 289
154 151 149 145 144 146 148 151 147 138 127 124 122 114 101 90 92 91 86 81 76 72 67 55 50 50 67 81 344 321 319 297 276 286 295 305 307 291 274 257 268 283 283
147 151 153 149 149 151 151 151 146 138 135 135 135 124 117 104 85 79 83 81 75 67 60 52 48 48 47 45 4 261 257 289 297 287 291 305 304 298 290 283 277 269 273
Height
1498 1498 1500 1503 1505 1506 1507 1508 1509 1509 1510 1510 1511 1512 1513 1514 1515 1516 1517 1518 1518 1519 1519 1518 1518 1519 1519 1519 1520 1521 1522 1522 1522 1522 1520 1517 1517 1517 1518 1519 1520 1520 1520
1498 1498 1500 1503 1505 1506 1507 1508 1509 1509 1510 1510 1512 1513 1514 1515 1515 1516 1517 1518 1518 1518 1518 1517 1517 1518 1519 1519 1520 1520 1520 1520 1520 1520 1518 1516 1515 1516 1516 1518 1519 1519 1519
1498 1498 1500 1503 1505 1506 1507 1508 1510 1510 1510 1510 1512 1513 1514 1516 1516 1517 1517 1518 1518 1517 1517 1517 1516 1517 1517 1518 1519 1519 1519 1518 1518 1518 1517 1515 1515 1515 1517 1517 1518 1517 1518
1497 1498 1499 1502 1504 1506 1507 1508 1510 1510 1510 1510 1511 1513 1515 1516 1517 1518 1518 1519 1518 1518 1517 1517 1517 1517 1516 1517 1518 1518 1518 1517 1516 1516 1516 1515 1515 1515 1515 1516 1517 1517 1517
1497 1499 1500 1502 1504 1506 1507 1509 1510 1510 1510 1511 1512 1513 1515 1517 1518 1519 1519 1519 1519 1519 1519 1518 1517 1517 1517 1518 1517 1518 1518 1517 1516 1516 1515 1515 1514 1515 1514 1515 1516 1516 1516
1497 1499 1500 1502 1504 1506 1508 1509 1510 1511 1511 1511 1512 1513 1516 1518 1519 1519 1520 1519 1520 1520 1520 1519 1518 1517 1517 1518 1518 1517 1517 1517 1516 1515 1516 1515 1514 1513 1513 1513 1513 1514 1514
1498 1499 1501 1502 1504 1506 1508 1509 1510 1511 1511 1511 1511 1514 1517 1518 1519 1520 1521 1520 1520 1520 1520 1520 1518 1517 1517 1517 1517 1517 1516 1515 1514 1513 1513 1513 1512 1512 1511 1511 1510 1510 1511
1498 1499 1501 1503 1504 1505 1507 1509 1510 1511 1512 1512 1512 1514 1516 1518 1518 1519 1521 1521 1521 1520 1520 1520 1518 1517 1517 1517 1516 1516 1515 1514 1513 1512 1511 1511 1510 1510 1509 1508 1507 1507 1507
1497 1499 1500 1502 1504 1505 1507 1508 1510 1511 1512 1512 1512 1514 1516 1516 1517 1518 1520 1521 1521 1521 1520 1520 1519 1517 1517 1516 1516 1516 1514 1513 1511 1510 1509 1509 1508 1507 1506 1506 1505 1505 1505
1496 1498 1499 1502 1503 1505 1506 1508 1509 1511 1512 1512 1512 1514 1515 1516 1517 1518 1519 1520 1521 1520 1520 1520 1519 1518 1516 1515 1514 1514 1513 1512 1510 1509 1508 1507 1506 1505 1504 1504 1504 1504 1503
1494 1496 1498 1500 1502 1504 1505 1507 1509 1510 1511 1512 1512 1514 1515 1516 1517 1517 1519 1520 1519 1519 1520 1520 1518 1517 1515 1514 1513 1512 1511 1510 1508 1507 1506 1505 1503 1502 1501 1501 1500 1500 1499
1492 1494 1496 1499 1501 1503 1504 1506 1508 1509 1510 1511 1512 1513 1514 1515 1517 1517 1518 1519 1519 1519 1520 1519 1516 1516 1514 1512 1510 1510 1509 1508 1506 1505 1504 1503 1501 1500 1499 1498 1497 1496 1495
1491 1493 1495 1498 1499 1501 1503 1505 1507 1508 1509 1510 1511 1512 1513 1515 1516 1516 1518 1518 1518 1518 1519 1517 1513 1514 1513 1511 1508 1507 1506 1505 1504 1502 1500 1499 1498 1497 1496 1495 1494 1493 1492
1490 1491 1494 1496 1498 1499 1502 1504 1506 1508 1509 1509 1510 1511 1512 1514 1515 1516 1516 1517 1517 1517 1517 1515 1512 1512 1511 1508 1506 1505 1503 1502 1500 1498 1496 1495 1494 1493 1493 1492 1491 1489 1488
1487 1489 1491 1493 1495 1497 1499 1502 1505 1507 1508 1509 1509 1511 1513 1514 1515 1516 1516 1516 1516 1516 1515 1512 1511 1509 1507 1506 1504 1502 1499 1497 1495 1493 1492 1490 1490 1490 1489 1488 1487 1486 1486
1484 1486 1488 1489 1492 1494 1497 1500 1503 1505 1507 1508 1509 1510 1512 1514 1515 1515 1515 1515 1515 1514 1512 1509 1509 1506 1503 1502 1501 1498 1495 1492 1490 1489 1488 1488 1487 1487 1485 1485 1483 1483 1482
1481 1482 1483 1485 1488 1491 1494 1497 1501 1503 1505 1506 1507 1509 1511 1512 1513 1513 1514 1514 1513 1511 1510 1507 1506 1503 1500 1498 1497 1495 1492 1490 1488 1487 1486 1486 1485 1484 1483 1482 1481 1480 1478
1476 1478 1479 1481 1484 1487 1491 1493 1498 1500 1502 1504 1506 1508 1509 1510 1511 1512 1512 1512 1511 1510 1507 1505 1503 1499 1496 1494 1494 1492 1489 1487 1485 1485 1484 1484 1483 1482 1481 1479 1478 1476 1475
1471 1472 1475 1477 1480 1484 1487 1490 1494 1497 1499 1501 1504 1506 1507 1508 1510 1511 1511 1511 1509 1508 1504 1501 1499 1495 1492 1491 1491 1489 1486 1484 1483 1483 1482 1481 1481 1479 1478 1477 1475 1473 1471
1464 1466 1469 1472 1476 1480 1483 1487 1490 1494 1496 1498 1501 1503 1505 1507 1508 1509 1509 1508 1506 1505 1501 1499 1496 1493 1490 1489 1488 1486 1483 1481 1481 1481 1480 1479 1479 1477 1476 1474 1472 1469 1467
1458 1460 1463 1467 1471 1475 1478 1482 1486 1490 1493 1496 1500 1502 1504 1506 1507 1507 1507 1505 1504 1502 1498 1496 1495 1492 1490 1487 1484 1482 1481 1480 1479 1477 1477 1476 1475 1474 1472 1470 1468 1465 1462
1453 1455 1458 1462 1467 1470 1474 1480 1484 1487 1491 1495 1498 1501 1503 1505 1505 1506 1505 1503 1501 1500 1497 1496 1494 1492 1489 1485 1482 1479 1478 1476 1475 1476 1474 1473 1471 1470 1468 1465 1462 1459 1456
1449 1451 1453 1456 1461 1466 1472 1477 1481 1485 1488 1492 1496 1499 1502 1503 1504 1504 1503 1500 1500 1499 1496 1495 1493 1490 1488 1486 1484 1483 1480 1476 1470 1466 1468 1465 1464 1461 1459 1457 1454 1452 1449
1444 1448 1450 1453 1457 1463 1470 1473 1477 1481 1485 1490 1494 1497 1500 1502 1502 1501 1500 1499 1498 1497 1496 1494 1491 1489 1487 1485 1484 1483 1481 1478 1473 1463 1459 1459 1456 1453 1450 1448 1446 1444 1441
1440 1443 1446 1449 1455 1462 1467 1471 1475 1479 1483 1488 1493 1495 1498 1499 1499 1498 1498 1497 1497 1496 1495 1492 1490 1488 1486 1483 1481 1479 1477 1474 1472 1467 1456 1450 1447 1445 1442 1439 1437 1434 1432
1435 1439 1442 1446 1452 1459 1464 1469 1473 1477 1481 1486 1490 1493 1495 1496 1496 1496 1496 1496 1495 1494 1492 1490 1488 1487 1484 1482 1479 1477 1474 1471 1468 1463 1456 1446 1438 1435 1433 1431 1430 1427 1424